Year,Month,Day,Hour,Minute,Value (Times are PST for temperature in C)
2016,07,14,00,00,13.00
2016,07,14,00,01,13.00
2016,07,14,00,02,12.90
2016,07,14,00,03,12.90
2016,07,14,00,04,12.90
2016,07,14,00,05,12.90
2016,07,14,00,06,12.90
2016,07,14,00,07,12.90
2016,07,14,00,08,12.80
2016,07,14,00,09,12.80
2016,07,14,00,10,12.80
2016,07,14,00,11,12.80
2016,07,14,00,12,12.80
2016,07,14,00,13,12.80
2016,07,14,00,14,12.70
2016,07,14,00,15,12.70
2016,07,14,00,16,12.70
2016,07,14,00,17,12.70
2016,07,14,00,18,12.70
2016,07,14,00,19,12.70
2016,07,14,00,20,12.70
2016,07,14,00,21,12.70
2016,07,14,00,22,12.70
2016,07,14,00,23,12.60
2016,07,14,00,24,12.60
2016,07,14,00,25,12.60
2016,07,14,00,26,12.60
2016,07,14,00,27,12.60
2016,07,14,00,28,12.60
2016,07,14,00,29,12.60
2016,07,14,00,30,12.60
2016,07,14,00,31,12.60
2016,07,14,00,32,12.60
2016,07,14,00,33,12.60
2016,07,14,00,34,12.50
2016,07,14,00,35,12.50
2016,07,14,00,36,12.50
2016,07,14,00,37,12.40
2016,07,14,00,38,12.40
2016,07,14,00,39,12.40
2016,07,14,00,40,12.40
2016,07,14,00,41,12.40
2016,07,14,00,42,12.30
2016,07,14,00,43,12.30
2016,07,14,00,44,12.30
2016,07,14,00,45,12.30
2016,07,14,00,46,12.30
2016,07,14,00,47,12.30
2016,07,14,00,48,12.30
2016,07,14,00,49,12.30
2016,07,14,00,50,12.30
2016,07,14,00,51,12.30
2016,07,14,00,52,12.30
2016,07,14,00,53,12.30
2016,07,14,00,54,12.30
2016,07,14,00,55,12.30
2016,07,14,00,56,12.30
2016,07,14,00,57,12.30
2016,07,14,00,58,12.20
2016,07,14,00,59,12.20
2016,07,14,01,00,12.20
2016,07,14,01,01,12.20
2016,07,14,01,02,12.20
2016,07,14,01,03,12.20
2016,07,14,01,04,12.20
2016,07,14,01,05,12.20
2016,07,14,01,06,12.20
2016,07,14,01,07,12.20
2016,07,14,01,08,12.20
2016,07,14,01,09,12.20
2016,07,14,01,10,12.20
2016,07,14,01,11,12.20
2016,07,14,01,12,12.20
2016,07,14,01,13,12.10
2016,07,14,01,14,12.10
2016,07,14,01,15,12.10
2016,07,14,01,16,12.10
2016,07,14,01,17,12.10
2016,07,14,01,18,12.10
2016,07,14,01,19,12.00
2016,07,14,01,20,12.00
2016,07,14,01,21,12.00
2016,07,14,01,22,12.00
2016,07,14,01,23,12.00
2016,07,14,01,24,12.00
2016,07,14,01,25,11.90
2016,07,14,01,26,11.90
2016,07,14,01,27,11.90
2016,07,14,01,28,11.90
2016,07,14,01,29,11.90
2016,07,14,01,30,11.90
2016,07,14,01,31,11.90
2016,07,14,01,32,11.80
2016,07,14,01,33,11.80
2016,07,14,01,34,11.80
2016,07,14,01,35,11.80
2016,07,14,01,36,11.80
2016,07,14,01,37,11.80
2016,07,14,01,38,11.80
2016,07,14,01,39,11.70
2016,07,14,01,40,11.70
2016,07,14,01,41,11.70
2016,07,14,01,42,11.70
2016,07,14,01,43,11.70
2016,07,14,01,44,11.70
2016,07,14,01,45,11.70
2016,07,14,01,46,11.70
2016,07,14,01,47,11.70
2016,07,14,01,48,11.70
2016,07,14,01,49,11.70
2016,07,14,01,50,11.70
2016,07,14,01,51,11.70
2016,07,14,01,52,11.70
2016,07,14,01,53,11.70
2016,07,14,01,54,11.70
2016,07,14,01,55,11.70
2016,07,14,01,56,11.70
2016,07,14,01,57,11.70
2016,07,14,01,58,11.70
2016,07,14,01,59,11.70
2016,07,14,02,00,11.70
2016,07,14,02,01,11.70
2016,07,14,02,02,11.70
2016,07,14,02,03,11.70
2016,07,14,02,04,11.70
2016,07,14,02,05,11.70
2016,07,14,02,06,11.70
2016,07,14,02,07,11.70
2016,07,14,02,08,11.70
2016,07,14,02,09,11.70
2016,07,14,02,10,11.60
2016,07,14,02,11,11.60
2016,07,14,02,12,11.60
2016,07,14,02,13,11.60
2016,07,14,02,14,11.60
2016,07,14,02,15,11.60
2016,07,14,02,16,11.60
2016,07,14,02,17,11.60
2016,07,14,02,18,11.60
2016,07,14,02,19,11.60
2016,07,14,02,20,11.60
2016,07,14,02,21,11.60
2016,07,14,02,22,11.60
2016,07,14,02,23,11.60
2016,07,14,02,24,11.60
2016,07,14,02,25,11.60
2016,07,14,02,26,11.60
2016,07,14,02,27,11.60
2016,07,14,02,28,11.60
2016,07,14,02,29,11.60
2016,07,14,02,30,11.60
2016,07,14,02,31,11.60
2016,07,14,02,32,11.70
2016,07,14,02,33,11.70
2016,07,14,02,34,11.60
2016,07,14,02,35,11.60
2016,07,14,02,36,11.60
2016,07,14,02,37,11.60
2016,07,14,02,38,11.60
2016,07,14,02,39,11.60
2016,07,14,02,40,11.60
2016,07,14,02,41,11.60
2016,07,14,02,42,11.60
2016,07,14,02,43,11.60
2016,07,14,02,44,11.60
2016,07,14,02,45,11.60
2016,07,14,02,46,11.50
2016,07,14,02,47,11.50
2016,07,14,02,48,11.40
2016,07,14,02,49,11.40
2016,07,14,02,50,11.40
2016,07,14,02,51,11.40
2016,07,14,02,52,11.40
2016,07,14,02,53,11.40
2016,07,14,02,54,11.40
2016,07,14,02,55,11.40
2016,07,14,02,56,11.40
2016,07,14,02,57,11.40
2016,07,14,02,58,11.40
2016,07,14,02,59,11.40
2016,07,14,03,00,11.40
2016,07,14,03,01,11.40
2016,07,14,03,02,11.40
2016,07,14,03,03,11.40
2016,07,14,03,04,11.40
2016,07,14,03,05,11.40
2016,07,14,03,06,11.40
2016,07,14,03,07,11.40
2016,07,14,03,08,11.40
2016,07,14,03,09,11.30
2016,07,14,03,10,11.30
2016,07,14,03,11,11.30
2016,07,14,03,12,11.30
2016,07,14,03,13,11.30
2016,07,14,03,14,11.30
2016,07,14,03,15,11.30
2016,07,14,03,16,11.30
2016,07,14,03,17,11.30
2016,07,14,03,18,11.30
2016,07,14,03,19,11.30
2016,07,14,03,20,11.30
2016,07,14,03,21,11.30
2016,07,14,03,22,11.20
2016,07,14,03,23,11.20
2016,07,14,03,24,11.20
2016,07,14,03,25,11.20
2016,07,14,03,26,11.20
2016,07,14,03,27,11.20
2016,07,14,03,28,11.20
2016,07,14,03,29,11.20
2016,07,14,03,30,11.20
2016,07,14,03,31,11.20
2016,07,14,03,32,11.20
2016,07,14,03,33,11.20
2016,07,14,03,34,11.20
2016,07,14,03,35,11.20
2016,07,14,03,36,11.20
2016,07,14,03,37,11.20
2016,07,14,03,38,11.20
2016,07,14,03,39,11.20
2016,07,14,03,40,11.20
2016,07,14,03,41,11.20
2016,07,14,03,42,11.20
2016,07,14,03,43,11.20
2016,07,14,03,44,11.20
2016,07,14,03,45,11.20
2016,07,14,03,46,11.20
2016,07,14,03,47,11.20
2016,07,14,03,48,11.20
2016,07,14,03,49,11.20
2016,07,14,03,50,11.20
2016,07,14,03,51,11.20
2016,07,14,03,52,11.20
2016,07,14,03,53,11.10
2016,07,14,03,54,11.10
2016,07,14,03,55,11.10
2016,07,14,03,56,11.10
2016,07,14,03,57,11.10
2016,07,14,03,58,11.10
2016,07,14,03,59,11.10
2016,07,14,04,00,11.10
2016,07,14,04,01,11.10
2016,07,14,04,02,11.10
2016,07,14,04,03,11.10
2016,07,14,04,04,11.10
2016,07,14,04,05,11.10
2016,07,14,04,06,11.10
2016,07,14,04,07,11.10
2016,07,14,04,08,11.10
2016,07,14,04,09,11.00
2016,07,14,04,10,11.00
2016,07,14,04,11,11.00
2016,07,14,04,12,11.00
2016,07,14,04,13,11.00
2016,07,14,04,14,10.90
2016,07,14,04,15,10.90
2016,07,14,04,16,10.90
2016,07,14,04,17,10.90
2016,07,14,04,18,10.90
2016,07,14,04,19,10.90
2016,07,14,04,20,10.90
2016,07,14,04,21,10.90
2016,07,14,04,22,10.90
2016,07,14,04,23,10.90
2016,07,14,04,24,10.80
2016,07,14,04,25,10.80
2016,07,14,04,26,10.80
2016,07,14,04,27,10.80
2016,07,14,04,28,10.80
2016,07,14,04,29,10.80
2016,07,14,04,30,10.80
2016,07,14,04,31,10.80
2016,07,14,04,32,10.80
2016,07,14,04,33,10.80
2016,07,14,04,34,10.80
2016,07,14,04,35,10.80
2016,07,14,04,36,10.80
2016,07,14,04,37,10.80
2016,07,14,04,38,10.80
2016,07,14,04,39,10.80
2016,07,14,04,40,10.80
2016,07,14,04,41,10.80
2016,07,14,04,42,10.80
2016,07,14,04,43,10.80
2016,07,14,04,44,10.80
2016,07,14,04,45,10.80
2016,07,14,04,46,10.80
2016,07,14,04,47,10.80
2016,07,14,04,48,10.90
2016,07,14,04,49,10.90
2016,07,14,04,50,11.00
2016,07,14,04,51,11.00
2016,07,14,04,52,11.10
2016,07,14,04,53,11.10
2016,07,14,04,54,11.20
2016,07,14,04,55,11.20
2016,07,14,04,56,11.20
2016,07,14,04,57,11.20
2016,07,14,04,58,11.20
2016,07,14,04,59,11.20
2016,07,14,05,00,11.20
2016,07,14,05,01,11.10
2016,07,14,05,02,11.10
2016,07,14,05,03,11.10
2016,07,14,05,04,11.10
2016,07,14,05,05,11.10
2016,07,14,05,06,11.00
2016,07,14,05,07,11.00
2016,07,14,05,08,11.00
2016,07,14,05,09,11.00
2016,07,14,05,10,10.90
2016,07,14,05,11,10.90
2016,07,14,05,12,10.90
2016,07,14,05,13,10.90
2016,07,14,05,14,10.90
2016,07,14,05,15,10.90
2016,07,14,05,16,10.90
2016,07,14,05,17,10.90
2016,07,14,05,18,10.90
2016,07,14,05,19,10.90
2016,07,14,05,20,10.90
2016,07,14,05,21,11.00
2016,07,14,05,22,11.00
2016,07,14,05,23,11.00
2016,07,14,05,24,11.10
2016,07,14,05,25,11.10
2016,07,14,05,26,11.10
2016,07,14,05,27,11.10
2016,07,14,05,28,11.10
2016,07,14,05,29,11.10
2016,07,14,05,30,11.10
2016,07,14,05,31,11.10
2016,07,14,05,32,11.10
2016,07,14,05,33,11.10
2016,07,14,05,34,11.10
2016,07,14,05,35,11.10
2016,07,14,05,36,11.10
2016,07,14,05,37,11.10
2016,07,14,05,38,11.10
2016,07,14,05,39,11.20
2016,07,14,05,40,11.20
2016,07,14,05,41,11.20
2016,07,14,05,42,11.30
2016,07,14,05,43,11.30
2016,07,14,05,44,11.30
2016,07,14,05,45,11.40
2016,07,14,05,46,11.40
2016,07,14,05,47,11.50
2016,07,14,05,48,11.50
2016,07,14,05,49,11.60
2016,07,14,05,50,11.60
2016,07,14,05,51,11.60
2016,07,14,05,52,11.60
2016,07,14,05,53,11.60
2016,07,14,05,54,11.60
2016,07,14,05,55,11.60
2016,07,14,05,56,11.60
2016,07,14,05,57,11.70
2016,07,14,05,58,11.70
2016,07,14,05,59,11.70
2016,07,14,06,00,11.80
2016,07,14,06,01,11.80
2016,07,14,06,02,11.90
2016,07,14,06,03,11.90
2016,07,14,06,04,12.00
2016,07,14,06,05,12.00
2016,07,14,06,06,12.10
2016,07,14,06,07,12.10
2016,07,14,06,08,12.10
2016,07,14,06,09,12.20
2016,07,14,06,10,12.20
2016,07,14,06,11,12.20
2016,07,14,06,12,12.30
2016,07,14,06,13,12.30
2016,07,14,06,14,12.30
2016,07,14,06,15,12.30
2016,07,14,06,16,12.30
2016,07,14,06,17,12.30
2016,07,14,06,18,12.30
2016,07,14,06,19,12.40
2016,07,14,06,20,12.40
2016,07,14,06,21,12.40
2016,07,14,06,22,12.40
2016,07,14,06,23,12.40
2016,07,14,06,24,12.50
2016,07,14,06,25,12.50
2016,07,14,06,26,12.60
2016,07,14,06,27,12.60
2016,07,14,06,28,12.60
2016,07,14,06,29,12.70
2016,07,14,06,30,12.70
2016,07,14,06,31,12.70
2016,07,14,06,32,12.80
2016,07,14,06,33,12.80
2016,07,14,06,34,12.80
2016,07,14,06,35,12.80
2016,07,14,06,36,12.90
2016,07,14,06,37,12.90
2016,07,14,06,38,13.00
2016,07,14,06,39,13.00
2016,07,14,06,40,13.10
2016,07,14,06,41,13.10
2016,07,14,06,42,13.10
2016,07,14,06,43,13.20
2016,07,14,06,44,13.20
2016,07,14,06,45,13.20
2016,07,14,06,46,13.30
2016,07,14,06,47,13.30
2016,07,14,06,48,13.30
2016,07,14,06,49,13.40
2016,07,14,06,50,13.40
2016,07,14,06,51,13.40
2016,07,14,06,52,13.50
2016,07,14,06,53,13.50
2016,07,14,06,54,13.60
2016,07,14,06,55,13.60
2016,07,14,06,56,13.70
2016,07,14,06,57,13.70
2016,07,14,06,58,13.70
2016,07,14,06,59,13.80
2016,07,14,07,00,13.80
2016,07,14,07,01,13.90
2016,07,14,07,02,14.00
2016,07,14,07,03,14.00
2016,07,14,07,04,14.10
2016,07,14,07,05,14.10
2016,07,14,07,06,14.20
2016,07,14,07,07,14.30
2016,07,14,07,08,14.40
2016,07,14,07,09,14.40
2016,07,14,07,10,14.50
2016,07,14,07,11,14.60
2016,07,14,07,12,14.70
2016,07,14,07,13,14.80
2016,07,14,07,14,14.80
2016,07,14,07,15,14.90
2016,07,14,07,16,15.00
2016,07,14,07,17,15.00
2016,07,14,07,18,15.00
2016,07,14,07,19,15.10
2016,07,14,07,20,15.30
2016,07,14,07,21,15.40
2016,07,14,07,22,15.60
2016,07,14,07,23,15.80
2016,07,14,07,24,15.90
2016,07,14,07,25,16.00
2016,07,14,07,26,16.10
2016,07,14,07,27,16.30
2016,07,14,07,28,16.40
2016,07,14,07,29,16.40
2016,07,14,07,30,16.50
2016,07,14,07,31,16.60
2016,07,14,07,32,16.60
2016,07,14,07,33,16.70
2016,07,14,07,34,16.70
2016,07,14,07,35,16.70
2016,07,14,07,36,16.80
2016,07,14,07,37,16.80
2016,07,14,07,38,16.80
2016,07,14,07,39,16.90
2016,07,14,07,40,16.90
2016,07,14,07,41,16.90
2016,07,14,07,42,16.90
2016,07,14,07,43,17.00
2016,07,14,07,44,17.00
2016,07,14,07,45,17.00
2016,07,14,07,46,17.10
2016,07,14,07,47,17.10
2016,07,14,07,48,17.10
2016,07,14,07,49,17.10
2016,07,14,07,50,17.10
2016,07,14,07,51,17.20
2016,07,14,07,52,17.20
2016,07,14,07,53,17.20
2016,07,14,07,54,17.20
2016,07,14,07,55,17.30
2016,07,14,07,56,17.30
2016,07,14,07,57,17.30
2016,07,14,07,58,17.30
2016,07,14,07,59,17.40
2016,07,14,08,00,17.40
2016,07,14,08,01,17.40
2016,07,14,08,02,17.40
2016,07,14,08,03,17.50
2016,07,14,08,04,17.60
2016,07,14,08,05,17.60
2016,07,14,08,06,17.60
2016,07,14,08,07,17.60
2016,07,14,08,08,17.60
2016,07,14,08,09,17.60
2016,07,14,08,10,17.60
2016,07,14,08,11,17.70
2016,07,14,08,12,17.70
2016,07,14,08,13,17.70
2016,07,14,08,14,17.70
2016,07,14,08,15,17.70
2016,07,14,08,16,17.70
2016,07,14,08,17,17.60
2016,07,14,08,18,17.60
2016,07,14,08,19,17.60
2016,07,14,08,20,17.60
2016,07,14,08,21,17.60
2016,07,14,08,22,17.60
2016,07,14,08,23,17.60
2016,07,14,08,24,17.60
2016,07,14,08,25,17.60
2016,07,14,08,26,17.60
2016,07,14,08,27,17.60
2016,07,14,08,28,17.60
2016,07,14,08,29,17.60
2016,07,14,08,30,17.60
2016,07,14,08,31,17.60
2016,07,14,08,32,17.50
2016,07,14,08,33,17.50
2016,07,14,08,34,17.40
2016,07,14,08,35,17.40
2016,07,14,08,36,17.40
2016,07,14,08,37,17.40
2016,07,14,08,38,17.40
2016,07,14,08,39,17.40
2016,07,14,08,40,17.40
2016,07,14,08,41,17.40
2016,07,14,08,42,17.50
2016,07,14,08,43,17.50
2016,07,14,08,44,17.60
2016,07,14,08,45,17.60
2016,07,14,08,46,17.70
2016,07,14,08,47,17.70
2016,07,14,08,48,17.70
2016,07,14,08,49,17.80
2016,07,14,08,50,17.80
2016,07,14,08,51,17.80
2016,07,14,08,52,17.80
2016,07,14,08,53,17.80
2016,07,14,08,54,17.80
2016,07,14,08,55,17.80
2016,07,14,08,56,17.80
2016,07,14,08,57,17.80
2016,07,14,08,58,17.80
2016,07,14,08,59,17.90
2016,07,14,09,00,17.90
2016,07,14,09,01,18.00
2016,07,14,09,02,18.00
2016,07,14,09,03,18.10
2016,07,14,09,04,18.20
2016,07,14,09,05,18.20
2016,07,14,09,06,18.30
2016,07,14,09,07,18.30
2016,07,14,09,08,18.40
2016,07,14,09,09,18.50
2016,07,14,09,10,18.50
2016,07,14,09,11,18.60
2016,07,14,09,12,18.70
2016,07,14,09,13,18.70
2016,07,14,09,14,18.80
2016,07,14,09,15,18.80
2016,07,14,09,16,18.90
2016,07,14,09,17,18.90
2016,07,14,09,18,18.90
2016,07,14,09,19,19.00
2016,07,14,09,20,19.00
2016,07,14,09,21,19.00
2016,07,14,09,22,19.10
2016,07,14,09,23,19.10
2016,07,14,09,24,19.10
2016,07,14,09,25,19.20
2016,07,14,09,26,19.30
2016,07,14,09,27,19.40
2016,07,14,09,28,19.50
2016,07,14,09,29,19.60
2016,07,14,09,30,19.70
2016,07,14,09,31,19.90
2016,07,14,09,32,19.90
2016,07,14,09,33,19.90
2016,07,14,09,34,20.00
2016,07,14,09,35,20.00
2016,07,14,09,36,20.00
2016,07,14,09,37,20.00
2016,07,14,09,38,20.00
2016,07,14,09,39,20.00
2016,07,14,09,40,20.10
2016,07,14,09,41,20.10
2016,07,14,09,42,20.10
2016,07,14,09,43,20.10
2016,07,14,09,44,20.20
2016,07,14,09,45,20.20
2016,07,14,09,46,20.20
2016,07,14,09,47,20.10
2016,07,14,09,48,20.00
2016,07,14,09,49,20.00
2016,07,14,09,50,19.90
2016,07,14,09,51,20.00
2016,07,14,09,52,20.00
2016,07,14,09,53,20.10
2016,07,14,09,54,20.10
2016,07,14,09,55,20.10
2016,07,14,09,56,20.10
2016,07,14,09,57,20.10
2016,07,14,09,58,20.20
2016,07,14,09,59,20.30
2016,07,14,10,00,20.40
2016,07,14,10,01,20.50
2016,07,14,10,02,20.60
2016,07,14,10,03,20.70
2016,07,14,10,04,20.80
2016,07,14,10,05,20.90
2016,07,14,10,06,21.00
2016,07,14,10,07,21.00
2016,07,14,10,08,21.10
2016,07,14,10,09,21.20
2016,07,14,10,10,21.30
2016,07,14,10,11,21.30
2016,07,14,10,12,21.40
2016,07,14,10,13,21.40
2016,07,14,10,14,21.40
2016,07,14,10,15,21.40
2016,07,14,10,16,21.40
2016,07,14,10,17,21.40
2016,07,14,10,18,21.50
2016,07,14,10,19,21.50
2016,07,14,10,20,21.50
2016,07,14,10,21,21.50
2016,07,14,10,22,21.50
2016,07,14,10,23,21.50
2016,07,14,10,24,21.40
2016,07,14,10,25,21.20
2016,07,14,10,26,21.10
2016,07,14,10,27,21.00
2016,07,14,10,28,20.90
2016,07,14,10,29,20.90
2016,07,14,10,30,20.90
2016,07,14,10,31,20.90
2016,07,14,10,32,20.90
2016,07,14,10,33,20.90
2016,07,14,10,34,20.90
2016,07,14,10,35,20.80
2016,07,14,10,36,20.90
2016,07,14,10,37,20.90
2016,07,14,10,38,20.90
2016,07,14,10,39,20.80
2016,07,14,10,40,20.80
2016,07,14,10,41,20.80
2016,07,14,10,42,20.80
2016,07,14,10,43,20.80
2016,07,14,10,44,20.80
2016,07,14,10,45,20.80
2016,07,14,10,46,20.80
2016,07,14,10,47,20.80
2016,07,14,10,48,20.90
2016,07,14,10,49,20.90
2016,07,14,10,50,20.90
2016,07,14,10,51,20.90
2016,07,14,10,52,20.90
2016,07,14,10,53,20.90
2016,07,14,10,54,21.00
2016,07,14,10,55,21.10
2016,07,14,10,56,21.10
2016,07,14,10,57,21.20
2016,07,14,10,58,21.20
2016,07,14,10,59,21.20
2016,07,14,11,00,21.20
2016,07,14,11,01,21.20
2016,07,14,11,02,21.20
2016,07,14,11,03,21.20
2016,07,14,11,04,21.30
2016,07,14,11,05,21.30
2016,07,14,11,06,21.40
2016,07,14,11,07,21.40
2016,07,14,11,08,21.50
2016,07,14,11,09,21.60
2016,07,14,11,10,21.60
2016,07,14,11,11,21.70
2016,07,14,11,12,21.80
2016,07,14,11,13,21.70
2016,07,14,11,14,21.60
2016,07,14,11,15,21.50
2016,07,14,11,16,21.30
2016,07,14,11,17,21.20
2016,07,14,11,18,21.20
2016,07,14,11,19,21.20
2016,07,14,11,20,21.10
2016,07,14,11,21,21.00
2016,07,14,11,22,20.90
2016,07,14,11,23,20.90
2016,07,14,11,24,20.90
2016,07,14,11,25,20.90
2016,07,14,11,26,20.80
2016,07,14,11,27,20.80
2016,07,14,11,28,20.80
2016,07,14,11,29,20.80
2016,07,14,11,30,20.80
2016,07,14,11,31,20.80
2016,07,14,11,32,20.80
2016,07,14,11,33,20.70
2016,07,14,11,34,20.60
2016,07,14,11,35,20.60
2016,07,14,11,36,20.60
2016,07,14,11,37,20.60
2016,07,14,11,38,20.60
2016,07,14,11,39,20.60
2016,07,14,11,40,20.60
2016,07,14,11,41,20.60
2016,07,14,11,42,20.60
2016,07,14,11,43,20.60
2016,07,14,11,44,20.70
2016,07,14,11,45,20.70
2016,07,14,11,46,20.70
2016,07,14,11,47,20.70
2016,07,14,11,48,20.70
2016,07,14,11,49,20.60
2016,07,14,11,50,20.40
2016,07,14,11,51,20.30
2016,07,14,11,52,20.20
2016,07,14,11,53,20.10
2016,07,14,11,54,20.00
2016,07,14,11,55,19.90
2016,07,14,11,56,19.90
2016,07,14,11,57,19.90
2016,07,14,11,58,19.90
2016,07,14,11,59,19.90
2016,07,14,12,00,19.90
2016,07,14,12,01,19.90
2016,07,14,12,02,19.90
2016,07,14,12,03,19.90
2016,07,14,12,04,19.90
2016,07,14,12,21,20.70
2016,07,14,12,22,20.70
2016,07,14,12,23,20.70
2016,07,14,12,24,20.70
2016,07,14,12,25,20.80
2016,07,14,12,26,20.90
2016,07,14,12,27,21.00
2016,07,14,12,28,21.10
2016,07,14,12,29,21.10
2016,07,14,12,30,21.10
2016,07,14,12,31,21.00
2016,07,14,12,32,20.90
2016,07,14,12,33,20.90
2016,07,14,12,34,20.90
2016,07,14,12,35,20.90
2016,07,14,12,36,21.00
2016,07,14,12,37,21.10
2016,07,14,12,38,21.10
2016,07,14,12,39,21.10
2016,07,14,12,40,21.00
2016,07,14,12,41,20.90
2016,07,14,12,42,21.00
2016,07,14,12,43,21.10
2016,07,14,12,44,21.10
2016,07,14,12,45,21.10
2016,07,14,12,46,21.10
2016,07,14,12,47,21.10
2016,07,14,12,48,21.10
2016,07,14,12,49,21.10
2016,07,14,12,50,21.10
2016,07,14,12,51,21.10
2016,07,14,12,52,21.20
2016,07,14,12,53,21.30
2016,07,14,12,54,21.30
2016,07,14,12,55,21.30
2016,07,14,12,56,21.20
2016,07,14,12,57,21.00
2016,07,14,12,58,20.80
2016,07,14,12,59,20.70
2016,07,14,13,00,20.60
2016,07,14,13,01,20.60
2016,07,14,13,02,20.50
2016,07,14,13,03,20.50
2016,07,14,13,04,20.50
2016,07,14,13,05,20.40
2016,07,14,13,06,20.40
2016,07,14,13,07,20.50
2016,07,14,13,08,20.50
2016,07,14,13,09,20.60
2016,07,14,13,10,20.60
2016,07,14,13,11,20.60
2016,07,14,13,12,20.60
2016,07,14,13,13,20.60
2016,07,14,13,14,20.70
2016,07,14,13,15,20.80
2016,07,14,13,16,20.80
2016,07,14,13,17,20.80
2016,07,14,13,18,20.90
2016,07,14,13,19,21.00
2016,07,14,13,20,21.00
2016,07,14,13,21,21.10
2016,07,14,13,22,21.20
2016,07,14,13,23,21.20
2016,07,14,13,24,21.20
2016,07,14,13,25,21.20
2016,07,14,13,26,21.10
2016,07,14,13,27,21.00
2016,07,14,13,28,20.90
2016,07,14,13,29,20.80
2016,07,14,13,30,20.80
2016,07,14,13,31,20.70
2016,07,14,13,32,20.70
2016,07,14,13,33,20.60
2016,07,14,13,34,20.50
2016,07,14,13,35,20.40
2016,07,14,13,36,20.30
2016,07,14,13,37,20.30
2016,07,14,13,38,20.20
2016,07,14,13,39,20.10
2016,07,14,13,40,20.10
2016,07,14,13,41,20.10
2016,07,14,13,42,20.10
2016,07,14,13,43,20.10
2016,07,14,13,44,20.20
2016,07,14,13,45,20.30
2016,07,14,13,46,20.40
2016,07,14,13,47,20.50
2016,07,14,13,48,20.60
2016,07,14,13,49,20.50
2016,07,14,13,50,20.50
2016,07,14,13,51,20.30
2016,07,14,13,52,20.30
2016,07,14,13,53,20.20
2016,07,14,13,54,20.20
2016,07,14,13,55,20.20
2016,07,14,13,56,20.20
2016,07,14,13,57,20.20
2016,07,14,13,58,20.20
2016,07,14,13,59,20.10
2016,07,14,14,00,20.00
2016,07,14,14,01,20.00
2016,07,14,14,02,19.90
2016,07,14,14,03,19.90
2016,07,14,14,04,19.90
2016,07,14,14,05,20.00
2016,07,14,14,06,20.00
2016,07,14,14,07,20.00
2016,07,14,14,08,19.90
2016,07,14,14,09,19.90
2016,07,14,14,10,19.80
2016,07,14,14,11,19.80
2016,07,14,14,12,19.80
2016,07,14,14,13,19.80
2016,07,14,14,14,19.80
2016,07,14,14,15,19.80
2016,07,14,14,16,19.70
2016,07,14,14,17,19.70
2016,07,14,14,18,19.70
2016,07,14,14,19,19.60
2016,07,14,14,20,19.60
2016,07,14,14,21,19.60
2016,07,14,14,22,19.50
2016,07,14,14,23,19.50
2016,07,14,14,24,19.50
2016,07,14,14,25,19.50
2016,07,14,14,26,19.50
2016,07,14,14,27,19.40
2016,07,14,14,28,19.40
2016,07,14,14,29,19.30
2016,07,14,14,30,19.30
2016,07,14,14,31,19.30
2016,07,14,14,32,19.30
2016,07,14,14,33,19.20
2016,07,14,14,34,19.30
2016,07,14,14,35,19.30
2016,07,14,14,36,19.30
2016,07,14,14,37,19.40
2016,07,14,14,38,19.50
2016,07,14,14,39,19.50
2016,07,14,14,40,19.60
2016,07,14,14,41,19.70
2016,07,14,14,42,19.70
2016,07,14,14,43,19.70
2016,07,14,14,44,19.70
2016,07,14,14,45,19.60
2016,07,14,14,46,19.50
2016,07,14,14,47,19.40
2016,07,14,14,48,19.40
2016,07,14,14,49,19.30
2016,07,14,14,50,19.30
2016,07,14,14,51,19.20
2016,07,14,14,52,19.10
2016,07,14,14,53,19.10
2016,07,14,14,54,19.10
2016,07,14,14,55,19.00
2016,07,14,14,56,18.90
2016,07,14,14,57,18.90
2016,07,14,14,58,18.90
2016,07,14,14,59,18.90
2016,07,14,15,00,19.00
2016,07,14,15,01,19.10
2016,07,14,15,02,19.10
2016,07,14,15,03,19.10
2016,07,14,15,04,19.20
2016,07,14,15,05,19.20
2016,07,14,15,06,19.20
2016,07,14,15,07,19.10
2016,07,14,15,08,19.10
2016,07,14,15,09,19.10
2016,07,14,15,10,19.10
2016,07,14,15,11,19.20
2016,07,14,15,12,19.20
2016,07,14,15,13,19.20
2016,07,14,15,14,19.20
2016,07,14,15,15,19.30
2016,07,14,15,16,19.40
2016,07,14,15,17,19.40
2016,07,14,15,18,19.50
2016,07,14,15,19,19.60
2016,07,14,15,20,19.70
2016,07,14,15,21,19.70
2016,07,14,15,22,19.70
2016,07,14,15,23,19.70
2016,07,14,15,24,19.70
2016,07,14,15,25,19.60
2016,07,14,15,26,19.60
2016,07,14,15,27,19.60
2016,07,14,15,28,19.60
2016,07,14,15,29,19.60
2016,07,14,15,30,19.60
2016,07,14,15,31,19.50
2016,07,14,15,32,19.50
2016,07,14,15,33,19.50
2016,07,14,15,34,19.50
2016,07,14,15,35,19.50
2016,07,14,15,36,19.60
2016,07,14,15,37,19.60
2016,07,14,15,38,19.70
2016,07,14,15,39,19.80
2016,07,14,15,40,19.90
2016,07,14,15,41,20.00
2016,07,14,15,42,20.10
2016,07,14,15,43,20.20
2016,07,14,15,44,20.30
2016,07,14,15,45,20.30
2016,07,14,15,46,20.40
2016,07,14,15,47,20.50
2016,07,14,15,48,20.50
2016,07,14,15,49,20.60
2016,07,14,15,50,20.70
2016,07,14,15,51,20.80
2016,07,14,15,52,20.80
2016,07,14,15,53,20.80
2016,07,14,15,54,20.80
2016,07,14,15,55,20.70
2016,07,14,15,56,20.70
2016,07,14,15,57,20.60
2016,07,14,15,58,20.50
2016,07,14,15,59,20.40
2016,07,14,16,00,20.30
2016,07,14,16,01,20.10
2016,07,14,16,02,20.00
2016,07,14,16,03,19.80
2016,07,14,16,04,19.70
2016,07,14,16,05,19.60
2016,07,14,16,06,19.50
2016,07,14,16,07,19.40
2016,07,14,16,08,19.30
2016,07,14,16,09,19.10
2016,07,14,16,10,19.10
2016,07,14,16,11,19.00
2016,07,14,16,12,18.90
2016,07,14,16,13,18.90
2016,07,14,16,14,18.80
2016,07,14,16,15,18.80
2016,07,14,16,16,18.80
2016,07,14,16,17,18.80
2016,07,14,16,18,18.80
2016,07,14,16,19,18.70
2016,07,14,16,20,18.60
2016,07,14,16,21,18.50
2016,07,14,16,22,18.40
2016,07,14,16,23,18.20
2016,07,14,16,24,18.10
2016,07,14,16,25,18.00
2016,07,14,16,26,17.90
2016,07,14,16,27,17.80
2016,07,14,16,28,17.70
2016,07,14,16,29,17.60
2016,07,14,16,30,17.50
2016,07,14,16,31,17.40
2016,07,14,16,32,17.30
2016,07,14,16,33,17.30
2016,07,14,16,34,17.20
2016,07,14,16,35,17.20
2016,07,14,16,36,17.10
2016,07,14,16,37,17.10
2016,07,14,16,38,17.10
2016,07,14,16,39,17.00
2016,07,14,16,40,17.00
2016,07,14,16,41,16.90
2016,07,14,16,42,16.80
2016,07,14,16,43,16.70
2016,07,14,16,44,16.60
2016,07,14,16,45,16.40
2016,07,14,16,46,16.30
2016,07,14,16,47,16.10
2016,07,14,16,48,16.00
2016,07,14,16,49,15.80
2016,07,14,16,50,15.70
2016,07,14,16,51,15.60
2016,07,14,16,52,15.50
2016,07,14,16,53,15.40
2016,07,14,16,54,15.30
2016,07,14,16,55,15.20
2016,07,14,16,56,15.00
2016,07,14,16,57,15.00
2016,07,14,16,58,15.00
2016,07,14,16,59,15.00
2016,07,14,17,00,15.00
2016,07,14,17,01,15.00
2016,07,14,17,02,15.00
2016,07,14,17,03,15.00
2016,07,14,17,04,15.00
2016,07,14,17,05,15.00
2016,07,14,17,06,15.00
2016,07,14,17,07,15.00
2016,07,14,17,08,15.00
2016,07,14,17,09,15.00
2016,07,14,17,10,15.00
2016,07,14,17,11,15.00
2016,07,14,17,12,15.00
2016,07,14,17,13,15.00
2016,07,14,17,14,15.00
2016,07,14,17,15,15.00
2016,07,14,17,16,15.00
2016,07,14,17,17,15.00
2016,07,14,17,18,15.00
2016,07,14,17,19,15.00
2016,07,14,17,20,15.00
2016,07,14,17,21,15.00
2016,07,14,17,22,15.00
2016,07,14,17,23,15.00
2016,07,14,17,24,15.00
2016,07,14,17,25,15.00
2016,07,14,17,26,15.00
2016,07,14,17,27,15.00
2016,07,14,17,28,15.10
2016,07,14,17,29,15.10
2016,07,14,17,30,15.10
2016,07,14,17,31,15.20
2016,07,14,17,32,15.20
2016,07,14,17,33,15.20
2016,07,14,17,34,15.20
2016,07,14,17,35,15.20